www.pogodaiklimat.ru

Погода и климат >> Архив погоды >> Казахстан >> Жангизтобе


АРХИВ ПОГОДЫ в Жангизтобе

Время (UTC), дата Ветер
(напр.,м/с)
 
Видим.   Явления Облачность Т
(С)
Тd
(С)
f
(%)
Тe
(С)
Тes
(С)
Комфортность P
(гПа)
Po
(гПа)
Тmin
(С)
Tmax
(С)
R
(мм)
R24
(мм)
S
(см)
06 19.04 В 3 50 км 9/8 1000 м
[Sc Ac lent]
0.0 -9.2 50 -4 -3 1023.8 967.7 -10.4
09 19.04 СВ 3 50 км 9/9 1000 м
[Sc]
+5.6 -5.2 46 +3 +4 1017.1 962.5
12 19.04 СВ 1 50 км 9/9 1000 м
[Sc]
+6.3 -7.0 38 +6 +6 1016.0 961.6
15 19.04 В 2 н/о слаб. ливневой дождь 10/10 1000 м
[Cb calv]
+4.5 +2.3 86 +2 +2 1014.3 959.7 +7.1
18 19.04 В 1 н/о {ливн. осадки} 10/10 1000 м
[Cb calv]
+2.4 +0.9 90 +1 +1 1013.0 958.0 +7.1 2
21 19.04 ЮВ 2 н/о 10/10 1000 м
[Sc]
+2.0 +0.7 91 -1 -1 1013.4 958.3
00 20.04 Ю 3 50 км {ливн. осадки} 9/9 1000 м
[Cb calv]
+3.8 +1.0 82 0 0 1011.2 956.6
03 20.04 Ю 5 50 км 10/10 1000 м
[Sc]
+5.3 +0.5 71 +1 +1 1010.7 956.4
06 20.04 Ю 13
{18}
50 км 10/10 1000 м
[Sc]
+11.0 +5.0 66 +7 +7 1008.1 955.0 +1.5 2
09 20.04 Ю 11
{16}
50 км 10/10 1000 м
[Sc]
+14.6 +7.0 60 +12 +12 1007.0 954.7
12 20.04 Ю 12
{17}
50 км 10/10 1000 м
[Sc]
+12.0 +7.1 72 +8 +8 1008.3 955.4
15 20.04 СЗ 2 н/о 10/10 1000 м
[Sc]
+10.0 +7.1 82 +9 +9 1009.7 956.4 +15.6
18 20.04 З 4 н/о слаб. ливневой дождь 10/10 1000 м
[Cb cap]
+4.1 +3.2 94 -1 -1 1014.7 960.0 +15.6
21 20.04 СЗ 5 н/о слаб. ливневой дождь со снегом 10/10 1000 м
[Cb cap]
+0.8 -0.6 90 -5 -5 1017.3 961.8
00 21.04 З 4 50 км в посл. час ливневой снег 10/10 1000 м
[Cb cap]
0.0 +2.1 100 -6 -6 1018.8 963.1
03 21.04 СЗ 2 50 км 10/10 1000 м
[Sc]
+0.4 -1.3 88 -3 -3 1020.0 964.2 1
06 21.04 С 3 50 км {ливн. осадки} 10/10 1000 м
[Cb calv]
+2.3 +0.2 86 -2 -2 1020.6 965.2 -0.5 2
09 21.04 С 3 50 км 9/9 1000 м
[Sc]
+4.8 -0.1 71 +2 +2 1020.1 965.2
12 21.04 С 1 50 км 9/6 1000 м
[Sc Ci fib]
+4.6 -2.9 58 +4 +4 1020.1 965.1
15 21.04 СВ 1 н/о 9/9 1000 м
[Sc]
+3.5 -2.4 65 +2 +2 1020.6 965.4 +5.4
18 21.04 СЗ 1 н/о 8/8 1000 м
[Sc]
+2.0 -1.3 79 0 0 1021.2 965.7 +5.4 0.0
21 21.04 штиль 0 н/о 8/6 1000 м
[Sc Ci sp]
+0.5 -1.8 85 -1 -1 1021.8 966.0
00 22.04 ЮЗ 1 50 км 8/0
[Ac und]
-1.5 -3.3 88 -4 -4 1022.6 966.3
03 22.04 СЗ 1 50 км 8/0
[Ac und]
+4.5 -0.8 68 +3 +7 1022.1 967.0
06 22.04 С 5 50 км 8/0
[Ac lent Ci fib]
+9.2 -0.9 49 +6 +11 1021.2 967.1 -2.0
09 22.04 С 3 50 км 6/6 1000 м
[Cu med, cong]
+11.0 -1.2 43 +10 +13 1020.4 966.6
12 22.04 СЗ 6 50 км 8/8 1000 м
[Cu med, cong]
+10.0 -3.9 37 +7 +7 1020.7 966.7
15 22.04 С 3 н/о 4/0
[Ac lent]
+5.1 -4.0 52 +2 +2 1022.4 967.4 +12.3
18 22.04 Ю 2 н/о 4/0
[Ac lent]
-0.6 -2.1 90 -4 -4 1024.2 968.0 +12.3
21 22.04 Ю 3 н/о 4/0
[Ac cuf]
-0.2 -2.9 82 -5 -5 1023.4 967.3
00 23.04 Ю 1 50 км 3/0
[Ac lent]
-2.4 -3.3 94 -5 -5 1024.2 967.6
03 23.04 ЮВ 1 50 км ясно +5.3 -3.7 52 +5 +13 1022.7 967.7
06 23.04 С 1 50 км ясно +9.5 -5.2 35 +10 +27 опасность
простуды
1020.5 966.4 -3.1
09 23.04 З 1 50 км 3/0
[Ac und]
+12.2 -6.7 26 +13 +23 1018.4 964.9
12 23.04 С 2 50 км 4/3 1000 м
[Sc diur, vesp Ac lent]
+12.4 -5.3 29 +12 +13 1017.2 963.8
15 23.04 СВ 1 н/о 4/4 1000 м
[Sc]
+8.4 -1.3 50 +8 +8 1018.0 963.9 +13.0
18 23.04 СВ 1 н/о 1/0
[Ac lent]
+5.9 -1.5 59 +5 +5 1018.1 963.5 +13.0
21 23.04 СЗ 1 н/о 9/9 1000 м
[Sc]
+2.6 +0.2 84 +1 +1 1017.9 962.7
00 24.04 З 1 50 км 4/4 1000 м
[Sc]
+2.4 0.0 84 +1 +1 1018.6 963.3
03 24.04 С 2 50 км 6/0
[Ac und]
+9.4 +4.0 69 +8 +12 1017.6 963.7
06 24.04 СЗ 4 50 км 8/0
[Ac lent Ci fib]
+14.0 +0.9 41 +13 +18 1015.0 962.1 +1.7
09 24.04 З 5 50 км 9/0
[Ac und]
+16.0 -1.5 30 +15 +17 1012.4 959.9
12 24.04 СЗ 4 50 км 9/0
[Ac und]
+15.2 -0.8 33 +14 +15 1011.4 958.9
15 24.04 С 2 н/о 6/0
[Ac As]
+10.4 -1.0 45 +9 +9 1012.9 959.4 +17.1
18 24.04 С 1 н/о 10/8 1000 м
[Sc Ac lent]
+8.4 +1.8 63 +8 +8 1011.9 958.1 +17.1
21 24.04 штиль 0 н/о 10/10 1000 м
[Sc]
+7.7 +2.6 70 +7 +7 1010.6 956.8
00 25.04 ЮЗ 2 10 км слаб. ливневой дождь 10/10 1000 м
[Cb calv]
+6.9 +5.4 90 +5 +5 1011.1 957.1
03 25.04 ЮЗ 2 50 км в посл. час ливневой дождь 9/9 1000 м
[Sc]
+7.3 +4.6 83 +5 +6 1011.2 957.3
06 25.04 З 3 50 км {ливн. осадки} 9/9 1000 м
[Cb calv]
+12.0 +3.7 57 +11 +12 1012.0 958.9 +6.3 3
09 25.04 З 4 н/о {ливн. осадки} 6/4 1000 м
[Sc Ci fib]
+14.3 +4.3 51 +13 +16 1014.0 961.2 +15.6
12 25.04 ЮЗ 7 50 км 8/3 1000 м
[Sc Ac lent Ci sp]
+14.5 +3.8 49 +13 +13 1014.8 962.0
15 25.04 ЮЗ 6 н/о 6/4 1000 м
[Sc Ci fib]
+11.5 +3.8 59 +9 +9 1016.5 963.1 +15.6
18 25.04 ЮЗ 4 н/о 6/0
[Ac und]
+9.5 +2.9 63 +7 +7 1018.3 964.4 +15.6 0.0
21 25.04 Ю 6 н/о 8/0
[Ac lent Ci sp]
+8.1 +2.8 69 +4 +4 1018.6 964.4
00 26.04 Ю 5 50 км 6/3 1000 м
[Sc Ci sp]
+6.9 +3.2 77 +3 +3 1019.4 965.0
03 26.04 Ю 5 50 км 6/0
[Ac und]
+11.0 +5.0 66 +8 +11 1018.5 964.9

 

Местоположение метеостанции Жангизтобе (Восточно-Казахстанская область, Казахстан): широта 49.22 долгота 81.22 высота над уровнем моря 455 м.

В архиве по умолчанию представлена погода в Жангизтобе за последнюю неделю. Архивные данные за месяц целиком и за предыдущие месяцы, начиная с января 2011 года, Вы можете получить, выбрав интересующий диапазон дат из раскрывающегося списка и нажав кнопку "Ввод!".


*Определитесь, кто Вы:
робот инопланетянин человек

Внимание! Время в таблицах - всемирное. Для получения местного времени необходимо прибавить поправку, которая равна 6 ч.

Смотрите также архив погоды в соседних городах и на ближайших метеорологических станциях:

Погода в Кентерлау (Восточно-Казахстанская область, Казахстан) (29 км)
Погода в Шаре (Восточно-Казахстанская область, Казахстан) (42 км)
Погода в Шалабае (Восточно-Казахстанская область, Казахстан) (57 км)
Погода в Кокпекты (Восточно-Казахстанская область, Казахстан) (99 км)
Погода в Кайсеновой (Восточно-Казахстанская область, Казахстан) (117 км)
Погода в Таврии (Восточно-Казахстанская область, Казахстан) (121 км)
Погода в Первомайском (Восточно-Казахстанская область, Казахстан) (130 км)
Погода в Шульбинске (Восточно-Казахстанская область, Казахстан) (130 км)
Погода в Глубоком (Восточно-Казахстанская область, Казахстан) (130 км)
Погода в Усть-Каменогорске (Восточно-Казахстанская область, Казахстан) (131 км)

Пояснения к столбцам:

Ветер - указаны скорость ветра в м/с - средняя за 10 мин, порывы в срок и между сроками (в фигурных скобках) и направление, откуда дует ветер: С - северный, СВ - северо-восточный, В - восточный, ЮВ - юго-восточный, Ю - южный, ЮЗ - юго-западный, З - западный, СЗ - северо-западный.
Видимость - горизонтальная дальность видимости в метрах или километрах. При видимости от 1 до 10 км при отсутствии осадков обычно наблюдается дымка, при ухудшении видимости до 1 км и менее - туман. В сухую погоду видимость может ухудшаться дымом, пылью или мглою.
Явления - указаны атмосферные явления, наблюдавшиеся в срок или в последний час перед сроком; фигурными скобками обозначены явления, наблюдавшиеся между сроками (за 1-3 часа до срока); квадратными скобками обозначены град или гололедные отложения с указанием их диаметра в мм.
Облачность - указаны через наклонную черту общая и нижняя облачность в баллах и высота нижней границы облаков в метрах; квадратными скобками обозначены формы облаков: Ci - перистые, Cs - перисто-слоистые, Cc - перисто-кучевые, Ac - высококучевые, As - высокослоистые, Sc - слоисто-кучевые, Ns - слоисто-дождевые, Cu - кучевые, Cb - кучево-дождевые. Подробнее классификацию облаков см. в Атласе облаков (PDF).
T - Температура воздуха - температура, измеренная на высоте 2 м над землей.
Td - Температура точки росы - температура, при понижении до которой содержащийся в воздухе водяной пар достигнет насыщения.
f - Относительная влажность воздуха - влажноcть воздуха, измеренная на высоте 2 м над землей.
Te - Эффективная температура - температура, которую ощущает одетый по сезону человек в тени. Характеристика душности погоды. При расчете учитывается влияние влажности воздуха и скорости ветра на теплоощущения человека.
Tes - Эффективная температура на солнце - температура, которую ощущает человек, с поправкой на солнечный нагрев. Характеристика знойности погоды. Зависит от высоты солнца над горизонтом, облачности и скорости ветра. Ночью, в пасмурную погоду, а также при ветре 12 м/с и более поправка равна нулю.
P - Атмосферное давление - приведенное к уровню моря атмосферное давление.
Po - Атмосферное давление - измеренное на уровне метеостанции атмосферное давление.
Tmin - Минимальная температура - минимум температуры воздуха на высоте 2 м над землей.
Tmax - Максимальная температура - максимум температуры воздуха на высоте 2 м над землей.
R - Количество осадков - Количество выпавших осадков за период времени, мм. При наведении курсора мыши на число - период времени, за который выпало указанное количество осадков.
R24 - Количество осадков - Количество выпавших осадков за 24 часа, мм.
S - Снежный покров - Высота снежного покрова, см. При наведении курсора мыши на число - состояние снежного покрова и степень покрытия местности в баллах.